STARLINK-35526, 65931

Orbit data source: Space-Track

STARLINK-35526, 65931 is a payload satellite owned by SpaceX/Seattle (US) in LEO that was launched on Wed, 08 Oct 2025 UTC via an FALCON 9 launch vehicle from the Air Force Western Test Range (AFWTR). Payload-class satellites include a variety of spacecraft equipped with specific instruments for various scientific and technological missions. These include communications satellites like Starlink; space stations such as the ISS; scientific satellites like the Hubble; Earth observation satellites from companies like Planet Labs, Umbra, and HawkEye 360; GPS; miniature CubeSats for education and research; and military/defense satellites.

Loading next visibility...
Identifier
65931, 2025-225X
Orbit
LEO
Country
Flag of USUS
Related business
Manufacturer
SpaceX/Seattle
Mission
Operational Commercial Communications
Bus & Motor
STARLINK V2MO, Unknown motor
Mass
575 kg wet, ~530 kg dry
Launch date (UTC)
2025-10-08 (8 months ago)
Launch vehicle
FALCON 9
Launch site
Air Force Western Test Range (AFWTR)
Object type
Payload
Rocket body
Debris
Shape & HBR
Box + 2 Pan, 17.7 m
Radar Cross Section
36.964 m², Large (>1 m²)

Expand to show TLE details & history
Last TLE update: 13 hours ago

TLE from 13 hours ago
0 STARLINK-35526
1 65931U 25225X   26151.21356294  .00024987  00000-0  85269-3 0  9990
2 65931  53.1567 142.3046 0001147  93.7265 266.3867 15.30208649 37048
Epoch: 2026-05-31T05:07Z
TLE epoch observation values (Epoch: 2026-05-31T05:07:31.838Z)
Latitude
-0.00004°
Longitude
176.70345°
Altitude
476.138 km
Speed
7.629 km/s
True Right ascension
09h 29m 13s
True Declination
0° 00' 00"
Sunlit
Object was in daylight at epoch
Visualization orbit readout
Latitude
Unknown
Longitude
Unknown
Altitude
Unknown
Speed
Unknown
Apparent Right ascension
Unknown
Apparent Declination
Unknown
Sunlit
N/A
Visualization observer readout
Local Sidereal Time
03:18:27
Azimuth
Unknown
Elevation
Unknown
Doppler factor
Unknown
Orbital elements
Apogee altitude
476.232 km
Perigee altitude
474.66 km
Semi-major axis
6,853.583 km
Eccentricity
0.00011
Inclination
53.1567°
RAAN
142.3046°
Arg. of periapsis
93.7265°
True anomaly
266.37358°
Mean anomaly
266.3867°
Eccentric anomaly
266.38014°
Mean motion
3.82531 °/min
Orbital period
94.11 mins
BSTAR
0.00085269
Loading maneuver chart data...
Computing Atmospheric mass density...
Loading historical data...
Loading historical data...
Loading historical data...
Loading historical data...
Loading historical data...
Loading historical data...
Loading historical data...

Documentation

Showing up to 5 results
|